Location: Asbacherhof
(48.8543°N, 10.7903°E)
Time: 22:12:00
(UTC+00:00)

IDEFIX/ARIANE 42P - Pass Details

Date: 26 May 2022
Orbit: 785 x 802 km, 98.5° (Epoch: 29 June)

Event Time Altitude Azimuth Distance (km) Brightness Sun altitude
Rises 01:37:32 0° 15° (NNE) 3,326 7.3 -13.1°
Reaches altitude 10° 01:39:53 10° 16° (NNE) 2,391 6.3 -12.8°
Maximum altitude 01:45:12 80° 104° (ESE) 821 2.7 -12.3°
Enters shadow 01:49:56 13° 191° (S) 2,169 4.3 -11.9°
